User: anonymous   Login
Location: Unspecified
(0.0000°N, 0.0000°E)
Time: 02:05:30
(UTC+00:00)
Language:

SSETI-EXPRESS DEB - Orbit

View from above orbital plane
View from above orbital plane
View from above satellite
View from above satellite

Ground track
Ground track

The orbit data is extracted from the following two-line orbital elements,

1 28897U 05043H   18170.38555215 +.00000131 +00000-0 +33684-4 0  9990
2 28897 097.9060 322.2569 0017295 060.6442 351.5361 14.64004098666594
Epoch (UTC): 19 June 2018 09:15:11
Eccentricity: 0.0017295
inclination: 97.9060°
perigee height: 668 km
apogee height: 692 km
right ascension of ascending node: 322.2569°
argument of perigee: 60.6442°
revolutions per day: 14.64004098
mean anomaly at epoch: 351.5361°
orbit number at epoch: 66659

The dashed part of the orbit path shows where the satellite is in the earth's shadow,  

DLR